KF0JHJ Weather Reports


time (UTC)temp
C
wind
direction
speed
KPH
gust
KPH
rain 1hr
cm
rain 24hr
cm
rain mn
cm
humidity
%
barometer
mb
20260502193817 18 223 8.0 17.7 0.00 0.00 0.00 38 1011.9
20260502193314 17 247 17.7 24.1 0.00 0.00 0.00 35 1012.1
20260502192815 17 237 12.9 24.1 0.00 0.00 0.00 36 1012.1
20260502192312 17 221 8.0 22.5 0.00 0.00 0.00 36 1011.9
20260502191809 17 205 14.5 29.0 0.00 0.00 0.00 38 1012.3
20260502191307 18 246 4.8 8.0 0.00 0.00 0.00 37 1012.3
20260502190804 18 225 3.2 9.7 0.00 0.00 0.00 40 1012.5
20260502190301 17 328 4.8 16.1 0.00 0.00 0.00 38 1012.6
20260502185756 17 229 8.0 16.1 0.00 0.00 0.00 36 1013.0
20260502185253 17 339 0.0 22.5 0.00 0.00 0.00 37 1012.8
20260502184749 16 183 4.8 16.1 0.00 0.00 0.00 39 1013.0
20260502184245 16 235 4.8 16.1 0.00 0.00 0.00 39 1013.0
20260502183742 16 226 8.0 25.7 0.00 0.00 0.00 39 1013.2
20260502183238 16 252 3.2 17.7 0.00 0.00 0.00 37 1013.4
20260502182733 16 219 27.4 27.4 0.00 0.00 0.00 38 1013.5
20260502182229 16 217 6.4 16.1 0.00 0.00 0.00 39 1013.5
20260502181726 16 213 6.4 17.7 0.00 0.00 0.00 38 1013.7
20260502181226 16 236 8.0 25.7 0.00 0.00 0.00 40 1013.7
20260502180722 16 234 12.9 20.9 0.00 0.00 0.00 36 1014.0
20260502180220 16 230 8.0 17.7 0.00 0.00 0.00 39 1014.0
20260502170144 15 223 20.9 22.5 0.00 0.00 0.00 40 1014.8
20260502164130 13 223 22.5 29.0 0.00 0.00 0.00 41 1015.0
20260502163626 13 210 14.5 17.7 0.00 0.00 0.00 41 1015.3
20260502163123 13 228 12.9 22.5 0.00 0.00 0.00 42 1015.1
20260502162620 13 180 0.0 19.3 0.00 0.00 0.00 41 1015.4
20260502162117 13 226 11.3 16.1 0.00 0.00 0.00 40 1015.5
20260502161614 13 234 16.1 17.7 0.00 0.00 0.00 42 1015.4
20260502161111 13 227 16.1 17.7 0.00 0.00 0.00 40 1015.6
20260502160609 13 186 8.0 22.5 0.00 0.00 0.00 39 1015.6
20260502160108 13 274 0.0 11.3 0.00 0.00 0.00 43 1015.5
20260502152022 11 225 4.8 16.1 0.00 0.00 0.00 46 1016.5
20260502151519 12 242 4.8 14.5 0.00 0.00 0.00 48 1016.1
20260502151016 11 267 4.8 22.5 0.00 0.00 0.00 49 1016.1
20260502150514 11 240 8.0 24.1 0.00 0.00 0.00 50 1016.2
20260502130358 6 258 0.0 4.8 0.00 0.00 0.00 70 1016.9
20260502123341 3 240 0.0 4.8 0.00 0.00 0.00 75 1017.0
20260502122838 3 262 0.0 3.2 0.00 0.00 0.00 77 1016.9
20260502122333 2 198 1.6 3.2 0.00 0.00 0.00 78 1016.8
20260502121833 2 198 0.0 1.6 0.00 0.00 0.00 78 1016.7
20260502121329 2 165 0.0 1.6 0.00 0.00 0.00 78 1016.7
20260502120826 2 180 0.0 0.0 0.00 0.00 0.00 79 1016.7
20260502120323 1 243 0.0 0.0 0.00 0.00 0.00 79 1016.7
20260502115820 1 294 0.0 1.6 0.00 0.00 0.00 79 1016.8
20260502115317 1 228 0.0 0.0 0.00 0.00 0.00 80 1016.9
20260502114814 1 254 0.0 0.0 0.00 0.00 0.00 80 1016.8
20260502114310 1 103 0.0 1.6 0.00 0.00 0.00 80 1016.9
20260502113808 1 106 0.0 0.0 0.00 0.00 0.00 81 1016.8
20260502113305 1 106 0.0 0.0 0.00 0.00 0.00 80 1016.8
20260502112803 1 106 0.0 0.0 0.00 0.00 0.00 80 1016.6
20260502112300 1 187 0.0 1.6 0.00 0.00 0.00 81 1016.8
20260502111757 1 90 0.0 0.0 0.00 0.00 0.00 80 1016.6
20260502111255 1 106 0.0 1.6 0.00 0.00 0.00 79 1016.7
20260502110752 1 114 0.0 0.0 0.00 0.00 0.00 79 1016.8
20260502110250 1 74 0.0 1.6 0.00 0.00 0.00 79 1016.8
20260502105748 1 257 0.0 0.0 0.00 0.00 0.00 78 1016.6
20260502105244 1 257 0.0 0.0 0.00 0.00 0.00 77 1016.6
20260502104742 1 257 0.0 1.6 0.00 0.00 0.00 77 1016.7
20260502104239 1 90 0.0 3.2 0.00 0.00 0.00 77 1016.9
20260502103737 1 106 0.0 0.0 0.00 0.00 0.00 78 1016.7
20260502103234 1 66 0.0 0.0 0.00 0.00 0.00 78 1016.7
20260502102731 1 66 0.0 0.0 0.00 0.00 0.00 77 1016.3
20260502102227 1 66 0.0 0.0 0.00 0.00 0.00 78 1016.5
20260502101726 1 66 0.0 0.0 0.00 0.00 0.00 78 1016.7
20260502101224 1 66 0.0 0.0 0.00 0.00 0.00 77 1016.7
20260502100721 1 56 0.0 1.6 0.00 0.00 0.00 76 1016.7
20260502100220 1 56 0.0 0.0 0.00 0.00 0.00 76 1016.5
20260502091153 2 66 0.0 0.0 0.00 0.00 0.00 73 1016.7
20260502090651 2 66 0.0 0.0 0.00 0.00 0.00 73 1016.2
20260502090148 2 66 0.0 0.0 0.00 0.00 0.00 73 1016.5
20260502071049 3 195 4.8 4.8 0.00 0.00 0.00 65 1016.8
20260502070547 3 204 0.0 4.8 0.00 0.00 0.00 65 1016.7
20260502070045 3 198 1.6 4.8 0.00 0.00 0.00 65 1016.8
20260502065543 3 198 0.0 3.2 0.00 0.00 0.00 65 1017.0
20260502065040 3 180 1.6 3.2 0.00 0.00 0.00 64 1017.0
20260502064539 4 245 0.0 3.2 0.00 0.00 0.00 62 1016.8
20260502064035 3 195 0.0 3.2 0.00 0.00 0.00 63 1016.9
20260502063533 3 165 0.0 0.0 0.00 0.00 0.00 64 1016.7
20260502063031 3 221 3.2 3.2 0.00 0.00 0.00 63 1016.9
20260502062528 3 254 0.0 0.0 0.00 0.00 0.00 63 1016.9
20260502062026 3 254 0.0 0.0 0.00 0.00 0.00 63 1016.9
20260502061524 3 254 0.0 0.0 0.00 0.00 0.00 63 1016.8
20260502061021 3 254 0.0 0.0 0.00 0.00 0.00 64 1017.0
20260502060516 3 254 0.0 0.0 0.00 0.00 0.00 63 1017.0
20260502060013 3 254 0.0 0.0 0.00 0.00 0.00 65 1017.1
20260502055510 3 254 0.0 0.0 0.00 0.00 0.00 64 1016.8
20260502055009 3 198 0.0 0.0 0.00 0.00 0.00 63 1017.0
20260502054507 3 234 0.0 0.0 0.00 0.00 0.00 63 1016.9
20260502054004 3 234 0.0 0.0 0.00 0.00 0.00 64 1017.2
20260502053501 3 234 0.0 0.0 0.00 0.00 0.00 64 1017.0
20260502052959 3 234 0.0 0.0 0.00 0.00 0.00 65 1017.1
20260502052457 4 234 0.0 0.0 0.00 0.00 0.00 63 1016.9
20260502051955 4 165 0.0 0.0 0.00 0.00 0.00 63 1017.0
20260502051452 4 165 0.0 0.0 0.00 0.00 0.00 64 1017.0
20260502050949 4 246 0.0 1.6 0.00 0.00 0.00 66 1017.1
20260502050446 3 186 0.0 0.0 0.00 0.00 0.00 65 1017.0
20260502045943 4 215 0.0 1.6 0.00 0.00 0.00 65 1017.1
20260502045440 4 215 0.0 0.0 0.00 0.00 0.00 65 1017.0
20260502044937 4 215 0.0 0.0 0.00 0.00 0.00 64 1016.8
20260502044432 4 97 0.0 0.0 0.00 0.00 0.00 65 1016.7
20260502043930 4 97 0.0 0.0 0.00 0.00 0.00 65 1016.8
20260502043427 4 97 0.0 0.0 0.00 0.00 0.00 65 1016.8
20260502042927 4 114 0.0 0.0 0.00 0.00 0.00 64 1016.9
20260502042424 5 114 0.0 0.0 0.00 0.00 0.00 63 1016.9
20260502041921 5 114 0.0 0.0 0.00 0.00 0.00 61 1016.9
20260502041419 5 114 0.0 0.0 0.00 0.00 0.00 60 1017.0
20260502040916 5 114 0.0 1.6 0.00 0.00 0.00 58 1017.0
20260502040412 5 262 0.0 0.0 0.00 0.00 0.00 58 1016.9
20260502035909 5 262 0.0 0.0 0.00 0.00 0.00 60 1017.0
20260502035405 4 262 0.0 0.0 0.00 0.00 0.00 62 1016.9
20260502034903 4 262 0.0 0.0 0.00 0.00 0.00 61 1016.8
20260502034401 5 262 0.0 0.0 0.00 0.00 0.00 60 1016.9
20260502033900 5 262 0.0 0.0 0.00 0.00 0.00 61 1016.9
20260502033357 4 262 0.0 0.0 0.00 0.00 0.00 62 1017.0
20260502032853 3 243 0.0 0.0 0.00 0.00 0.00 64 1017.0
20260502032349 3 243 0.0 1.6 0.00 0.00 0.00 65 1017.0
20260502031847 3 352 0.0 0.0 0.00 0.00 0.00 62 1016.9
20260502031345 4 352 0.0 0.0 0.00 0.00 0.00 62 1017.1
20260502030843 4 352 0.0 0.0 0.00 0.00 0.00 61 1016.8
20260502030341 5 352 0.0 0.0 0.00 0.00 0.00 57 1017.0
20260502025838 5 352 0.0 0.0 0.00 0.00 0.00 55 1016.7
20260502025336 5 352 0.0 0.0 0.00 0.00 0.00 54 1016.9
20260502024833 5 352 0.0 0.0 0.00 0.00 0.00 56 1017.0
20260502024331 5 352 0.0 0.0 0.00 0.00 0.00 56 1017.1
20260502023829 5 352 0.0 0.0 0.00 0.00 0.00 56 1017.0
20260502023326 5 352 0.0 0.0 0.00 0.00 0.00 54 1016.9
20260502022824 5 352 0.0 0.0 0.00 0.00 0.00 54 1017.1
20260502022320 6 352 0.0 0.0 0.00 0.00 0.00 55 1016.9
20260502021817 6 352 0.0 0.0 0.00 0.00 0.00 52 1016.9
20260502021314 6 352 0.0 0.0 0.00 0.00 0.00 52 1016.7
20260502020812 6 352 0.0 0.0 0.00 0.00 0.00 52 1016.8
20260502020309 6 352 0.0 0.0 0.00 0.00 0.00 53 1016.8
20260502015806 6 352 0.0 0.0 0.00 0.00 0.00 53 1016.6
20260502015305 6 352 0.0 0.0 0.00 0.00 0.00 53 1016.5
20260502014800 6 352 0.0 0.0 0.00 0.00 0.00 52 1016.6
20260502014257 6 352 0.0 0.0 0.00 0.00 0.00 51 1016.5
20260502013753 6 352 0.0 0.0 0.00 0.00 0.00 51 1016.5
20260502013249 7 352 0.0 0.0 0.00 0.00 0.00 50 1016.3
20260502012745 7 352 0.0 0.0 0.00 0.00 0.00 48 1016.2
20260502012243 7 352 0.0 0.0 0.00 0.00 0.00 47 1016.2
20260502011741 8 352 0.0 0.0 0.00 0.00 0.00 46 1016.3
20260502011236 8 352 0.0 0.0 0.00 0.00 0.00 44 1016.5
20260502010734 9 352 0.0 0.0 0.00 0.00 0.00 43 1016.5
20260502010230 9 352 0.0 1.6 0.00 0.00 0.00 43 1016.3
20260502005727 9 352 0.0 4.8 0.00 0.00 0.00 42 1016.3
20260502005225 10 0 0.0 0.0 0.00 0.00 0.00 41 1016.3
20260502004721 10 0 3.2 3.2 0.00 0.00 0.00 41 1016.3
20260502004218 10 348 0.0 3.2 0.00 0.00 0.00 41 1016.2
20260502003716 10 275 3.2 9.7 0.00 0.00 0.00 40 1016.3
20260502003213 10 6 0.0 1.6 0.00 0.00 0.00 41 1016.1
20260502002708 10 353 0.0 3.2 0.00 0.00 0.00 40 1016.2
20260502002207 10 345 0.0 3.2 0.00 0.00 0.00 39 1016.2
20260502001703 10 297 0.0 4.8 0.00 0.00 0.00 40 1016.2
20260502001201 10 77 0.0 3.2 0.00 0.00 0.00 40 1016.2
20260502000659 10 23 0.0 6.4 0.00 0.00 0.00 39 1016.1
20260502000156 10 0 4.8 6.4 0.00 0.00 0.00 39 1016.1
20260501235652 10 34 3.2 6.4 0.00 0.00 0.00 40 1016.0
20260501235148 10 29 4.8 8.0 0.00 0.00 0.00 39 1016.2
20260501234644 11 19 3.2 4.8 0.00 0.00 0.00 38 1016.5
20260501234141 11 81 0.0 4.8 0.00 0.00 0.00 39 1016.1
20260501233639 10 286 0.0 8.0 0.00 0.00 0.00 39 1016.1
20260501233136 10 48 3.2 6.4 0.00 0.00 0.00 39 1016.1
20260501232632 11 14 0.0 6.4 0.00 0.00 0.00 39 1016.5
20260501232130 11 277 0.0 3.2 0.00 0.00 0.00 40 1016.0
20260501231627 11 348 1.6 6.4 0.00 0.00 0.00 38 1016.2
20260501231125 11 285 0.0 8.0 0.00 0.00 0.00 39 1016.0
20260501230623 11 312 3.2 8.0 0.00 0.00 0.00 38 1016.0
20260501230121 12 270 1.6 6.4 0.00 0.00 0.00 38 1016.1
20260501225619 11 216 4.8 4.8 0.00 0.00 0.00 39 1016.1
20260501225114 12 0 1.6 6.4 0.00 0.00 0.00 35 1016.0
20260501224612 12 0 1.6 6.4 0.00 0.00 0.00 35 1016.2
20260501224109 12 348 4.8 8.0 0.00 0.00 0.00 37 1016.2
20260501223605 12 352 3.2 8.0 0.00 0.00 0.00 37 1016.3
20260501223102 12 7 3.2 8.0 0.00 0.00 0.00 37 1016.2
20260501222558 12 4 6.4 6.4 0.00 0.00 0.00 36 1016.1
20260501222055 11 40 3.2 6.4 0.00 0.00 0.00 39 1016.1
20260501221552 11 0 8.0 9.7 0.00 0.00 0.00 37 1016.6
20260501221049 12 345 3.2 9.7 0.00 0.00 0.00 36 1016.2
20260501220547 12 3 4.8 9.7 0.00 0.00 0.00 35 1016.5
20260501220044 13 20 1.6 4.8 0.00 0.00 0.00 37 1016.1
20260501215540 12 19 6.4 11.3 0.00 0.00 0.00 36 1016.1
20260501215035 12 311 4.8 14.5 0.00 0.00 0.00 36 1016.3
20260501214531 12 354 4.8 4.8 0.00 0.00 0.00 37 1016.3
20260501214027 12 358 6.4 9.7 0.00 0.00 0.00 39 1016.2
20260501213524 11 18 1.6 4.8 0.00 0.00 0.00 41 1016.2
20260501213020 11 82 1.6 8.0 0.00 0.00 0.00 42 1016.5
20260501212516 12 348 3.2 11.3 0.00 0.00 0.00 38 1016.2
20260501212014 12 296 4.8 9.7 0.00 0.00 0.00 35 1016.2
20260501211510 13 315 6.4 8.0 0.00 0.00 0.00 36 1016.2
20260501211008 12 32 6.4 8.0 0.00 0.00 0.00 39 1016.3
20260501210504 10 342 1.6 4.8 0.00 0.00 0.00 39 1016.3
20260501210001 10 277 6.4 8.0 0.00 0.00 0.00 40 1016.5
20260501205458 11 349 1.6 8.0 0.00 0.00 0.00 40 1016.7
20260501204955 12 90 1.6 8.0 0.00 0.00 0.00 39 1016.6
20260501204451 12 250 4.8 9.7 0.00 0.00 0.00 38 1016.3
20260501203947 13 259 0.0 6.4 0.00 0.00 0.00 40 1016.5
20260501203444 12 337 8.0 11.3 0.00 0.00 0.00 37 1016.6
20260501202942 12 77 0.0 8.0 0.00 0.00 0.00 37 1016.7
20260501202438 13 308 6.4 11.3 0.00 0.00 0.00 37 1016.7
20260501201935 12 4 3.2 11.3 0.00 0.00 0.00 38 1016.7
20260501201432 13 63 0.0 6.4 0.00 0.00 0.00 41 1016.6
20260501200929 12 14 0.0 6.4 0.00 0.00 0.00 42 1016.8
20260501200426 11 141 3.2 3.2 0.00 0.00 0.00 41 1016.5
20260501195924 11 338 0.0 6.4 0.00 0.00 0.00 41 1017.0
20260501195420 11 327 3.2 6.4 0.00 0.00 0.00 40 1016.7
20260501194915 12 213 0.0 4.8 0.00 0.00 0.00 45 1016.8
20260501194412 11 0 1.6 6.4 0.00 0.00 0.00 41 1016.7